DW0148 Weather Reports


time (UTC)temp
C
wind
direction
speed
KPH
gust
KPH
rain 1hr
cm
rain 24hr
cm
rain mn
cm
humidity
%
barometer
mb
20260507114732 12 84 0.0 1.6 0.00 2.77 1.35 96 1011.2
20260507114230 11 84 0.0 1.6 0.00 2.79 1.35 96 1011.2
20260507113729 11 84 0.0 1.6 0.00 2.79 1.35 96 1010.8
20260507113228 12 113 0.0 1.6 0.00 2.79 1.35 96 1011.2
20260507112655 12 118 0.0 1.6 0.00 2.82 1.35 96 1011.2
20260507112153 12 119 1.6 3.2 0.00 2.82 1.35 96 1011.2
20260507111652 12 59 1.6 3.2 0.03 2.82 1.35 96 1010.5
20260507111151 12 17 0.0 3.2 0.03 2.82 1.35 96 1010.5
20260507110616 12 298 1.6 3.2 0.03 2.82 1.35 96 1010.5
20260507110043 12 60 1.6 1.6 0.03 2.82 1.35 96 1010.2
20260507105541 12 59 1.6 1.6 0.03 2.84 1.35 96 1010.2
20260507105040 12 59 0.0 3.2 0.03 2.84 1.35 96 1010.5
20260507104539 12 59 0.0 3.2 0.03 2.84 1.35 96 1010.5
20260507104038 12 59 1.6 3.2 0.03 2.84 1.35 96 1010.2
20260507103537 12 65 0.0 1.6 0.03 2.84 1.35 96 1010.5
20260507103036 12 65 0.0 1.6 0.03 2.84 1.35 96 1010.5
20260507102535 12 70 1.6 1.6 0.03 2.84 1.35 96 1010.5
20260507102033 12 17 0.0 1.6 0.00 2.82 1.32 96 1010.8
20260507101459 12 18 0.0 1.6 0.03 2.82 1.32 96 1010.5
20260507100957 12 17 0.0 1.6 0.03 2.82 1.32 95 1010.5
20260507100455 12 28 1.6 1.6 0.03 2.82 1.32 96 1010.5
20260507095922 12 34 0.0 0.0 0.03 2.82 1.32 96 1010.5
20260507095421 12 33 0.0 0.0 0.03 2.82 1.32 96 1010.8
20260507094919 12 33 0.0 0.0 0.03 2.82 1.32 95 1010.5
20260507094418 12 46 0.0 0.0 0.05 2.82 1.32 96 1010.8
20260507093916 12 45 0.0 0.0 0.05 2.82 1.32 96 1010.8
20260507093415 12 46 0.0 0.0 0.08 2.82 1.32 95 1010.5
20260507092841 12 45 0.0 1.6 0.08 2.82 1.32 95 1010.2
20260507092308 12 46 0.0 1.6 0.08 2.82 1.32 95 1010.2
20260507091807 12 45 0.0 1.6 0.05 2.79 1.30 95 1010.2
20260507091306 12 55 1.6 1.6 0.05 2.79 1.30 95 1010.2
20260507090805 12 56 0.0 0.0 0.05 2.79 1.30 95 1010.2
20260507090303 12 56 0.0 1.6 0.05 2.79 1.30 95 1010.2
20260507085801 12 56 0.0 1.6 0.05 2.79 1.30 95 1010.2
20260507085228 12 57 0.0 1.6 0.05 2.79 1.30 95 1010.2
20260507084728 12 57 0.0 1.6 0.05 2.79 1.30 95 1010.2
20260507084226 12 56 0.0 1.6 0.03 2.77 1.27 95 1010.5
20260507083725 12 66 1.6 1.6 0.03 2.77 1.27 95 1010.2
20260507083223 12 70 0.0 1.6 0.00 2.74 1.24 95 1010.5
20260507082722 12 69 0.0 1.6 0.00 2.74 1.24 95 1010.8
20260507082220 12 70 0.0 1.6 0.00 2.74 1.24 95 1010.5
20260507081719 12 69 0.0 1.6 0.00 2.74 1.24 95 1010.2
20260507081217 12 69 0.0 1.6 0.00 2.74 1.24 95 1010.2
20260507080716 13 68 1.6 1.6 0.00 2.74 1.24 95 1010.2
20260507080215 13 68 0.0 1.6 0.00 2.74 1.24 95 1010.2
20260507075712 13 84 0.0 0.0 0.00 2.74 1.24 95 1010.2
20260507075211 13 84 0.0 0.0 0.00 2.74 1.24 95 1010.5
20260507074637 13 85 0.0 1.6 0.00 2.74 1.24 95 1010.5
20260507074136 13 84 0.0 3.2 0.00 2.74 1.24 95 1010.5
20260507073635 13 84 0.0 3.2 0.00 2.74 1.24 95 1010.5
20260507073101 13 84 0.0 3.2 0.00 2.74 1.24 95 1010.2
20260507072600 13 86 1.6 3.2 0.00 2.74 1.24 95 1010.2
20260507072059 13 139 0.0 1.6 0.00 2.74 1.24 95 1010.2
20260507071558 13 143 0.0 1.6 0.00 2.74 1.24 95 1010.2
20260507071055 13 142 1.6 1.6 0.00 2.74 1.24 95 1010.2
20260507070554 13 160 0.0 1.6 0.00 2.74 1.24 95 1010.2
20260507070020 13 161 0.0 0.0 0.00 2.74 1.24 95 1009.8
20260507065456 13 161 0.0 0.0 0.00 2.74 1.24 95 1009.8
20260507064955 13 160 0.0 0.0 0.00 2.74 1.24 95 1010.2
20260507064454 13 161 0.0 0.0 0.00 2.74 1.24 95 1010.5
20260507063953 13 160 0.0 0.0 0.00 2.74 1.24 95 1010.5
20260507063452 13 160 0.0 1.6 0.00 2.74 1.24 95 1010.8
20260507062951 13 160 0.0 1.6 0.00 2.74 1.24 95 1010.8
20260507062450 13 160 0.0 3.2 0.00 2.74 1.24 95 1010.8
20260507061916 13 203 0.0 3.2 0.00 2.74 1.24 95 1010.8
20260507061416 13 203 1.6 3.2 0.00 2.74 1.24 95 1010.8
20260507060915 13 188 3.2 3.2 0.00 2.74 1.24 95 1010.5
20260507060413 13 99 0.0 4.8 0.00 2.74 1.24 95 1010.5
20260507055840 13 177 1.6 4.8 0.00 2.74 1.24 95 1010.2
20260507055307 13 280 1.6 9.7 0.00 2.74 1.24 95 1010.2
20260507054806 14 42 1.6 9.7 0.00 2.74 1.24 95 1010.2
20260507054304 14 280 0.0 9.7 0.00 2.74 1.24 95 1010.5
20260507053802 14 37 3.2 9.7 0.00 2.74 1.24 95 1010.5
20260507053301 15 43 3.2 8.0 0.00 2.74 1.24 95 1010.5
20260507052800 15 56 3.2 8.0 0.00 2.74 1.24 95 1010.5
20260507052259 15 57 1.6 4.8 0.00 2.74 1.24 95 1010.8
20260507051757 15 36 1.6 4.8 0.00 2.74 1.24 95 1010.8
20260507051256 15 66 1.6 6.4 0.00 2.74 1.24 95 1010.8
20260507050755 15 3 0.0 6.4 0.00 2.74 1.24 95 1010.8
20260507050253 15 44 1.6 4.8 0.00 2.74 1.24 95 1010.8
20260507045751 15 41 0.0 4.8 0.00 2.74 1.24 95 1010.5
20260507045249 15 40 1.6 4.8 0.00 2.74 1.24 95 1010.5
20260507044746 15 44 1.6 4.8 0.00 2.74 1.24 95 1010.5
20260507044244 15 44 3.2 4.8 0.00 2.74 1.24 95 1010.8
20260507043712 15 5 0.0 0.0 0.00 2.74 1.24 95 1010.8
20260507043210 15 4 0.0 1.6 0.00 2.74 1.24 95 1010.8
20260507042708 15 5 0.0 1.6 0.00 2.74 1.24 95 1010.8
20260507042207 15 5 0.0 1.6 0.00 2.74 1.24 95 1010.8
20260507041705 15 5 1.6 1.6 0.00 2.74 1.24 95 1010.5
20260507041204 15 4 0.0 1.6 0.00 2.74 1.24 95 1010.5
20260507040703 15 5 0.0 1.6 0.00 2.74 1.24 95 1010.5
20260507040129 15 5 0.0 1.6 0.00 2.74 1.24 95 1010.5
20260507035628 15 5 1.6 1.6 0.00 2.74 1.24 95 1010.5
20260507035127 15 7 1.6 1.6 0.00 2.74 1.24 95 1010.8
20260507034626 15 356 0.0 3.2 0.00 2.74 1.24 95 1010.8
20260507034125 15 355 0.0 3.2 0.00 2.74 1.24 95 1010.8
20260507033623 15 355 0.0 4.8 0.00 2.74 1.24 95 1010.5
20260507033121 15 24 1.6 4.8 0.00 2.74 1.24 95 1010.5
20260507032620 15 42 1.6 4.8 0.00 2.74 1.24 95 1010.5
20260507032119 16 42 0.0 4.8 0.00 2.74 1.24 95 1010.2
20260507031618 16 73 1.6 3.2 0.00 2.74 1.24 95 1010.5
20260507031117 16 54 1.6 3.2 0.00 2.74 1.24 95 1010.8
20260507030616 16 86 1.6 1.6 0.00 2.74 1.24 95 1010.8
20260507030115 16 61 0.0 1.6 0.00 2.74 1.24 95 1010.8
20260507025612 16 60 0.0 1.6 0.00 2.74 1.24 95 1010.5
20260507025110 16 61 0.0 1.6 0.00 2.74 1.24 95 1010.5
20260507024537 16 61 0.0 3.2 0.00 2.74 1.24 95 1010.8
20260507024004 16 63 1.6 3.2 0.00 2.74 1.24 95 1010.8
20260507023503 16 58 0.0 1.6 0.00 2.74 1.24 95 1010.8
20260507023000 16 58 0.0 1.6 0.00 2.74 1.24 95 1011.2
20260507022459 16 58 0.0 1.6 0.00 2.74 1.24 95 1011.2
20260507021957 16 58 0.0 1.6 0.00 2.74 1.24 95 1011.2
20260507021423 16 58 0.0 1.6 0.00 2.74 1.24 95 1011.2
20260507020920 16 58 1.6 1.6 0.00 2.74 1.24 95 1011.2
20260507020418 16 58 0.0 1.6 0.00 2.74 1.24 95 1010.5
20260507015917 16 58 0.0 3.2 0.00 2.74 1.24 95 1010.5
20260507015416 16 49 0.0 3.2 0.00 2.74 1.24 95 1010.8
20260507014915 16 38 0.0 1.6 0.00 2.74 1.24 95 1010.8
20260507014412 17 38 0.0 1.6 0.00 2.74 1.24 95 1010.5
20260507013840 17 38 0.0 3.2 0.00 2.74 1.24 95 1010.8
20260507013339 17 39 0.0 3.2 0.00 2.74 1.24 95 1010.5
20260507012838 17 39 0.0 3.2 0.00 2.74 1.24 95 1010.5
20260507012337 17 63 1.6 3.2 0.03 2.74 1.24 95 1010.5
20260507011836 17 102 1.6 1.6 0.03 2.74 1.24 95 1010.5
20260507011334 17 101 1.6 1.6 0.05 2.74 1.24 95 1010.8
20260507010833 17 101 0.0 0.0 0.08 2.74 1.24 95 1010.8
20260507010331 17 101 0.0 0.0 0.10 2.74 1.24 95 1010.5
20260507005830 17 101 0.0 1.6 0.13 2.74 1.24 95 1010.8
20260507005329 17 101 0.0 1.6 0.13 2.74 1.24 95 1011.2
20260507004827 17 102 0.0 1.6 0.20 2.74 1.24 95 1010.5
20260507004325 17 102 1.6 6.4 0.25 2.74 1.24 95 1009.8
20260507003823 17 101 1.6 12.9 0.28 2.74 1.24 95 1009.8
20260507003322 17 125 0.0 12.9 0.30 2.74 1.24 95 1009.8
20260507002821 17 125 1.6 12.9 0.33 2.74 1.24 95 1009.5
20260507002319 17 82 4.8 12.9 0.30 2.72 1.22 95 1010.8
20260507001818 17 221 1.6 6.4 0.33 2.72 1.22 95 1011.9
20260507001317 17 208 1.6 6.4 0.33 2.69 1.19 95 1011.2
20260507000815 17 184 3.2 8.0 0.30 2.67 1.17 95 1011.2
20260507000242 17 248 1.6 9.7 0.25 2.62 1.12 95 1010.5
20260506235739 17 232 3.2 9.7 0.25 2.62 1.12 95 1010.2
20260506235237 17 226 3.2 8.0 0.23 2.59 1.09 95 1010.2
20260506234735 18 223 3.2 8.0 0.18 2.54 1.04 95 1010.5
20260506234234 18 356 0.0 1.6 0.13 2.49 0.99 95 1010.2
20260506233733 18 355 0.0 1.6 0.10 2.46 0.97 95 1009.5
20260506233232 18 352 1.6 3.2 0.08 2.44 0.94 95 1009.5
20260506232731 18 242 0.0 4.8 0.05 2.41 0.91 95 1009.8
20260506232230 18 248 0.0 11.3 0.05 2.41 0.91 95 1009.8
20260506231728 18 31 1.6 11.3 0.00 2.36 0.86 95 1009.8
20260506231155 18 240 1.6 12.9 0.00 2.36 0.86 95 1010.2
20260506230654 18 231 4.8 12.9 0.03 2.36 0.86 95 1010.2
20260506230153 18 211 3.2 8.0 0.05 2.36 0.86 95 1009.8
20260506225619 18 193 3.2 8.0 0.08 2.36 0.86 95 1009.8
20260506225118 18 242 3.2 8.0 0.10 2.36 0.86 95 1010.2
20260506224616 18 176 1.6 4.8 0.10 2.36 0.86 95 1009.8
20260506224115 18 222 1.6 3.2 0.13 2.36 0.86 95 1009.5
20260506223613 18 83 0.0 6.4 0.15 2.36 0.86 95 1009.1
20260506223112 18 80 1.6 6.4 0.20 2.36 0.86 95 1009.1
20260506222610 18 204 1.6 12.9 0.23 2.36 0.86 95 1009.1
20260506221901 18 149 1.6 12.9 0.25 2.36 0.86 95 1008.8
20260506221359 18 99 3.2 12.9 0.28 2.36 0.86 95 1009.1
20260506220858 18 204 3.2 12.9 0.28 2.36 0.86 95 1009.8
20260506220357 18 231 6.4 11.3 0.28 2.34 0.84 95 1009.1
20260506215855 19 215 3.2 6.4 0.28 2.29 0.81 95 1008.8
20260506215353 19 231 3.2 6.4 0.28 2.26 0.76 95 1009.1
20260506214852 19 211 3.2 4.8 0.28 2.26 0.76 95 1009.1
20260506214351 19 122 1.6 9.7 0.28 2.26 0.76 95 1009.1
20260506213850 19 203 1.6 9.7 0.25 2.21 0.71 95 1009.1
20260506213348 19 284 1.6 11.3 0.25 2.18 0.69 95 1009.1
20260506212847 19 229 4.8 11.3 0.23 2.16 0.66 95 1009.5
20260506212346 19 193 3.2 8.0 0.23 2.13 0.64 95 1009.1
20260506211845 19 238 3.2 8.0 0.20 2.11 0.61 95 1008.5
20260506211343 19 95 1.6 8.0 0.20 2.08 0.58 94 1008.8
20260506210841 19 230 1.6 8.0 0.23 2.08 0.58 95 1009.5
20260506210340 19 143 1.6 12.9 0.20 2.06 0.56 94 1009.5
20260506205839 19 222 1.6 12.9 0.18 2.01 0.51 95 1009.1
20260506205338 19 238 3.2 14.5 0.15 1.98 0.48 95 1009.8
20260506204835 19 218 3.2 14.5 0.18 1.98 0.48 95 1008.8
20260506204334 19 220 3.2 11.3 0.23 1.98 0.48 95 1008.5
20260506203833 19 203 3.2 8.0 0.20 1.96 0.46 95 1008.5
20260506203332 19 228 1.6 8.0 0.20 1.93 0.43 95 1008.5
20260506202830 19 220 3.2 8.0 0.25 1.93 0.43 95 1008.5
20260506202329 19 237 1.6 8.0 0.23 1.91 0.41 95 1008.5
20260506201755 19 202 1.6 8.0 0.23 1.91 0.41 95 1009.1
20260506201254 19 224 3.2 8.0 0.20 1.88 0.38 95 1009.5
20260506200753 19 205 3.2 9.7 0.20 1.85 0.36 94 1009.5
20260506200252 19 238 3.2 9.7 0.23 1.85 0.36 95 1009.5
20260506195751 19 188 1.6 6.4 0.20 1.83 0.33 94 1009.5
20260506195250 19 200 0.0 8.0 0.18 1.80 0.30 94 1009.8
20260506194748 19 230 1.6 8.0 0.20 1.80 0.30 94 1010.2
20260506194247 19 240 3.2 9.7 0.15 1.75 0.25 94 1010.2
20260506193746 19 223 4.8 9.7 0.18 1.75 0.25 94 1010.2
20260506193245 19 238 4.8 8.0 0.13 1.70 0.20 94 1009.8
20260506192713 19 123 1.6 4.8 0.10 1.68 0.18 94 1009.5
20260506192212 19 265 3.2 4.8 0.13 1.68 0.18 94 1009.5
20260506191710 19 273 1.6 6.4 0.15 1.68 0.18 94 1009.8
20260506191209 19 209 1.6 8.0 0.15 1.65 0.18 94 1009.8
20260506190706 19 175 1.6 8.0 0.15 1.65 0.15 94 1010.2
20260506190206 19 235 3.2 8.0 0.13 1.63 0.13 94 1010.2
20260506185705 19 230 3.2 6.4 0.13 1.63 0.13 94 1009.8
20260506185204 19 226 1.6 6.4 0.13 1.63 0.13 94 1009.8
20260506184702 19 248 3.2 8.0 0.10 1.60 0.10 94 1010.2
20260506184200 19 193 3.2 9.7 0.10 1.60 0.10 94 1010.5
20260506183659 19 231 3.2 9.7 0.08 1.57 0.08 93 1010.5
20260506183158 19 143 1.6 9.7 0.08 1.57 0.08 93 1010.5
20260506182555 20 280 3.2 9.7 0.05 1.55 0.05 92 1010.2
20260506182053 20 195 1.6 8.0 0.03 1.52 0.03 91 1010.2
20260506181520 20 215 3.2 9.7 0.00 1.50 0.00 90 1010.8
20260506180917 20 220 3.2 9.7 0.00 1.50 0.00 89 1010.5
20260506180416 20 199 1.6 11.3 0.00 1.50 0.00 89 1010.8
20260506175915 20 238 3.2 11.3 0.00 1.50 0.00 87 1010.8
20260506175414 20 204 3.2 11.3 0.00 1.50 0.00 87 1010.8
20260506174913 20 221 3.2 11.3 0.00 1.50 0.00 87 1010.8
20260506174412 21 233 3.2 8.0 0.00 1.50 0.00 87 1010.8
20260506173839 21 235 3.2 12.9 0.00 1.50 0.00 86 1010.8
20260506173338 21 240 3.2 12.9 0.00 1.50 0.00 86 1010.8
20260506172837 21 213 3.2 14.5 0.00 1.50 0.00 86 1010.5
20260506172202 21 237 6.4 14.5 0.00 1.50 0.00 85 1010.5
20260506171630 21 199 4.8 11.3 0.00 1.50 0.00 88 1010.5
20260506171129 21 188 3.2 11.3 0.00 1.50 0.00 88 1010.5
20260506170628 21 221 6.4 11.3 0.00 1.50 0.00 87 1010.5
20260506170056 21 255 3.2 11.3 0.00 1.50 0.00 87 1010.5
20260506165554 21 238 1.6 11.3 0.00 1.50 0.00 89 1010.5
20260506165053 21 221 4.8 11.3 0.00 1.50 0.00 87 1010.2
20260506164551 20 245 4.8 16.1 0.00 1.50 0.00 88 1010.2
20260506164050 20 234 6.4 16.1 0.00 1.50 0.00 87 1010.2
20260506163549 20 216 4.8 17.7 0.00 1.50 0.00 86 1010.2
20260506163048 21 230 6.4 17.7 0.00 1.50 0.00 87 1010.2
20260506162547 21 227 4.8 17.7 0.00 1.50 0.00 86 1010.2
20260506162046 21 222 4.8 17.7 0.00 1.50 0.00 87 1009.8
20260506161512 20 211 4.8 17.7 0.00 1.50 0.00 89 1010.2
20260506161011 20 193 4.8 17.7 0.00 1.50 0.00 91 1010.2
20260506160439 20 252 6.4 17.7 0.00 1.50 0.00 90 1009.8
20260506155938 20 235 4.8 12.9 0.00 1.50 1.50 91 1010.2
20260506155436 20 240 6.4 14.5 0.03 1.50 1.50 92 1010.2
20260506154935 19 246 3.2 14.5 0.03 1.50 1.50 92 1010.2
20260506154434 19 30 3.2 16.1 0.05 1.50 1.50 94 1009.8
20260506153932 18 214 6.4 16.1 0.05 1.50 1.50 94 1009.8
20260506153431 18 206 3.2 9.7 0.10 1.50 1.50 94 1010.2
20260506152859 18 217 3.2 12.9 0.13 1.50 1.50 94 1010.2
20260506152357 18 110 3.2 12.9 0.15 1.50 1.50 95 1010.2
20260506151855 17 237 4.8 14.5 0.15 1.50 1.50 95 1010.2
20260506151354 17 236 4.8 14.5 0.18 1.50 1.50 95 1010.2
20260506150853 17 134 3.2 14.5 0.18 1.50 1.50 95 1009.8
20260506150352 17 184 3.2 14.5 0.20 1.50 1.50 95 1010.2
20260506145850 17 243 3.2 16.1 0.23 1.50 1.50 95 1010.5
20260506145318 17 199 4.8 16.1 0.23 1.47 1.47 95 1010.8
20260506144817 17 185 1.6 9.7 0.25 1.47 1.47 95 1010.5
20260506144314 17 240 3.2 9.7 0.28 1.45 1.45 95 1010.8
20260506143813 17 184 3.2 9.7 0.30 1.45 1.45 95 1010.8
20260506143312 17 239 3.2 6.4 0.30 1.40 1.40 95 1010.8
20260506142811 17 234 1.6 6.4 0.36 1.37 1.37 95 1011.2
20260506142310 17 232 1.6 9.7 0.36 1.35 1.35 95 1011.5
20260506141809 17 156 1.6 12.9 0.38 1.35 1.35 95 1011.2
20260506141307 17 122 1.6 14.5 0.36 1.32 1.32 95 1011.2
20260506140805 17 239 3.2 14.5 0.41 1.30 1.30 95 1011.2
20260506140304 17 186 3.2 11.3 0.43 1.30 1.30 95 1011.5
20260506135803 16 183 1.6 11.3 0.48 1.27 1.27 95 1010.5
20260506135305 16 159 3.2 6.4 0.51 1.24 1.24 94 1010.5
20260506134728 16 158 3.2 6.4 0.51 1.22 1.22 94 1010.5
20260506134228 16 113 1.6 6.4 0.51 1.17 1.17 94 1010.5
20260506133725 16 123 1.6 6.4 0.58 1.14 1.14 94 1010.8
20260506133224 16 123 1.6 6.4 0.58 1.07 1.07 94 1011.2
20260506132723 16 202 3.2 6.4 0.64 1.02 1.02 94 1011.2
20260506132222 16 103 1.6 6.4 0.66 0.99 0.99 94 1010.8
20260506131721 16 103 3.2 6.4 0.71 0.97 0.97 94 1011.2
20260506131220 16 190 1.6 6.4 0.74 0.94 0.94 94 1011.5
20260506130647 16 201 3.2 6.4 0.71 0.89 0.89 94 1010.8
20260506130146 16 211 1.6 4.8 0.69 0.84 0.84 94 1010.8
20260506125645 16 224 1.6 4.8 0.66 0.76 0.76 94 1010.5
20260506125143 16 217 1.6 4.8 0.64 0.74 0.74 94 1010.8
20260506124642 16 231 1.6 4.8 0.64 0.71 0.71 94 1010.8
20260506124141 16 148 1.6 4.8 0.61 0.66 0.66 94 1010.2
20260506123607 16 161 0.0 3.2 0.48 0.53 0.53 94 1011.2
20260506123035 17 125 1.6 3.2 0.41 0.46 0.46 93 1011.2
20260506122533 17 73 1.6 4.8 0.33 0.36 0.36 93 1010.8
20260506122031 17 217 0.0 8.0 0.28 0.30 0.30 93 1010.8
20260506121530 17 217 0.0 8.0 0.20 0.23 0.23 92 1010.5
20260506121029 17 241 3.2 8.0 0.15 0.18 0.18 92 1010.2
20260506120528 17 215 1.6 8.0 0.13 0.15 0.15 91 1010.2
20260506120026 17 197 1.6 4.8 0.10 0.13 0.13 91 1010.2
20260506115454 17 153 1.6 6.4 0.10 0.10 0.10 91 1009.8
20260506114953 17 236 3.2 6.4 0.08 0.08 0.08 90 1009.8